Lambertville, MI

6:24 PM EDT on August 22, 2017 (GMT -0400)
Lambertville

Weather History for KDUH - September, 2012

Change the Weather History Date:

Tuesday, September 25, 2012

  Actual Average (KTOL) Record (KTOL)
Temperature  
Mean Temperature 58 °F -  
Max Temperature 69 °F 69 °F 91 °F (1891)
Min Temperature 48 °F 46 °F 32 °F (1976)
Degree Days  
Heating Degree Days 6    
Growing Degree Days 8 (Base 50)    
Moisture  
Dew Point 46 °F    
Average Humidity 64    
Maximum Humidity 89    
Minimum Humidity 44    
Precipitation  
Precipitation 0.00 in - - ()
Sea Level Pressure  
Sea Level Pressure 29.95 in    
Wind  
Wind Speed 7 mph (SSW)    
Max Wind Speed 12 mph    
Max Gust Speed 21 mph    
Visibility 10 miles    
Events      
Averages and records for this station are not official NWS values.
T = Trace of Precipitation, MM = Missing Value Source: NWS Daily Summary

Daily Weather History Graph

Daily Weather History Graph

Search for Another Location

Airport or City:

Trip Planner

Search our weather history database for the weather conditions in past years. The results will help you decide how hot, cold, wet, or windy it might be!

Date:

Astronomy

Sep. 25, 2012 Rise Set
Actual Time 7:25 AM EDT 7:25 PM EDT
Civil Twilight 6:57 AM EDT 7:53 PM EDT
Nautical Twilight 6:25 AM EDT 8:25 PM EDT
Astronomical Twilight 5:52 AM EDT 8:58 PM EDT
Moon 4:52 PM EDT (9/25) 2:42 AM EDT (9/25)
Length of Visible Light 12h 55m
Length of Day
12h 00m
Waxing Gibbous, 80% of the Moon is Illuminated
Sep 25
Waxing Gibbous
Sep 29
Full
Oct 8
Last Quarter
Oct 15
New
Oct 21
First Quarter

Hourly Weather History & Observations

Time (EDT) Temp. Dew Point Humidity Pressure Visibility Wind Dir Wind Speed Gust Speed Precip Events Conditions
12:55 AM 56.5 °F 34.5 °F 44% 29.99 in 10.0 mi SW 5.8 mph - N/A   Clear
1:15 AM 55.4 °F 35.1 °F 46% 29.99 in 10.0 mi SW 6.9 mph - N/A   Clear
1:35 AM 55.0 °F 35.6 °F 48% 29.98 in 10.0 mi SSW 6.9 mph - N/A   Clear
1:55 AM 54.5 °F 35.8 °F 49% 29.99 in 10.0 mi SW 6.9 mph - N/A   Clear
2:15 AM 53.2 °F 36.5 °F 53% 29.99 in 10.0 mi SSW 6.9 mph - N/A   Clear
2:35 AM 51.8 °F 36.9 °F 57% 29.99 in 10.0 mi South 6.9 mph - N/A   Clear
2:55 AM 51.3 °F 37.0 °F 58% 29.99 in 10.0 mi SSW 6.9 mph - N/A   Clear
3:15 AM 50.9 °F 37.4 °F 60% 29.98 in 10.0 mi SSW 5.8 mph - N/A   Clear
3:35 AM 50.7 °F 37.6 °F 61% 29.98 in 10.0 mi SSW 6.9 mph - N/A   Clear
3:55 AM 50.4 °F 37.8 °F 62% 29.98 in 10.0 mi SSW 6.9 mph - N/A   Clear
4:15 AM 50.9 °F 37.9 °F 61% 29.98 in 10.0 mi SSW 8.1 mph - N/A   Clear
4:35 AM 50.9 °F 37.9 °F 61% 29.98 in 10.0 mi SSW 5.8 mph - N/A   Clear
4:55 AM 50.0 °F 38.3 °F 64% 29.97 in 10.0 mi SSW 8.1 mph - N/A   Clear
5:15 AM 50.0 °F 38.5 °F 65% 29.97 in 10.0 mi SSW 4.6 mph - N/A   Clear
5:35 AM 50.2 °F 38.5 °F 64% 29.97 in 10.0 mi South 6.9 mph - N/A   Clear
5:55 AM 49.5 °F 38.7 °F 66% 29.97 in 10.0 mi SSW 4.6 mph - N/A   Clear
6:15 AM 48.6 °F 39.0 °F 70% 29.97 in 10.0 mi South 5.8 mph - N/A   Scattered Clouds
6:35 AM 48.7 °F 39.2 °F 70% 29.96 in 10.0 mi South 5.8 mph - N/A   Clear
6:55 AM 48.6 °F 39.2 °F 70% 29.96 in 10.0 mi South 5.8 mph - N/A   Clear
7:15 AM 48.6 °F 39.2 °F 70% 29.96 in 10.0 mi SSW 3.5 mph - N/A   Clear
7:35 AM 49.1 °F 39.2 °F 69% 29.95 in 10.0 mi SSW 5.8 mph - N/A   Clear
7:55 AM 49.8 °F 39.4 °F 67% 29.95 in 10.0 mi South 6.9 mph - N/A   Clear
8:15 AM 51.4 °F 39.7 °F 64% 29.97 in 10.0 mi South 10.4 mph - N/A   Mostly Cloudy
8:35 AM 52.2 °F 40.1 °F 64% 29.97 in 10.0 mi SSW 10.4 mph - N/A   Overcast
8:55 AM 53.2 °F 40.5 °F 62% 29.99 in 10.0 mi SSW 11.5 mph - N/A   Overcast
9:15 AM 53.6 °F 41.2 °F 63% 29.98 in 10.0 mi SSW 5.8 mph - N/A   Overcast
9:35 AM 55.6 °F 42.1 °F 60% 29.98 in 10.0 mi SSW 10.4 mph - N/A   Overcast
9:55 AM 57.2 °F 42.6 °F 58% 29.98 in 10.0 mi SSW 8.1 mph - N/A   Scattered Clouds
10:15 AM 59.0 °F 43.3 °F 56% 29.98 in 10.0 mi SSW 6.9 mph - N/A   Clear
10:35 AM 59.4 °F 43.3 °F 55% 29.97 in 10.0 mi SSW 9.2 mph - N/A   Mostly Cloudy
10:55 AM 60.8 °F 44.8 °F 56% 29.96 in 10.0 mi SW 5.8 mph - N/A   Scattered Clouds
11:15 AM 60.6 °F 44.6 °F 56% 29.97 in 10.0 mi SSW 10.4 mph 16.1 mph N/A   Mostly Cloudy
11:35 AM 60.8 °F 45.0 °F 56% 29.96 in 10.0 mi SW 8.1 mph - N/A   Overcast
11:55 AM 62.8 °F 45.7 °F 54% 29.95 in 10.0 mi SSW 6.9 mph - N/A   Mostly Cloudy
12:15 PM 64.6 °F 46.0 °F 51% 29.95 in 10.0 mi SSW 11.5 mph - N/A   Scattered Clouds
12:35 PM 65.7 °F 46.6 °F 50% 29.94 in 10.0 mi SW 5.8 mph - N/A   Mostly Cloudy
12:55 PM 67.1 °F 46.9 °F 48% 29.94 in 10.0 mi SSW 9.2 mph - N/A   Scattered Clouds
1:15 PM 68.0 °F 47.7 °F 48% 29.93 in 10.0 mi SSW 5.8 mph - N/A   Scattered Clouds
1:35 PM 69.3 °F 48.0 °F 47% 29.92 in 10.0 mi SW 9.2 mph - N/A   Scattered Clouds
1:55 PM 69.8 °F 48.2 °F 46% 29.91 in 10.0 mi South 6.9 mph - N/A   Clear
2:15 PM 68.4 °F 47.5 °F 47% 29.91 in 10.0 mi South 8.1 mph - N/A   Scattered Clouds
3:15 PM 67.1 °F 48.7 °F 52% 29.91 in 10.0 mi WSW 5.8 mph - N/A   Overcast
3:35 PM 67.1 °F 49.5 °F 53% 29.91 in 10.0 mi SW 6.9 mph - N/A   Overcast
3:55 PM 67.1 °F 49.8 °F 54% 29.90 in 10.0 mi SW 3.5 mph - N/A   Overcast
4:15 PM 67.1 °F 50.5 °F 55% 29.90 in 10.0 mi SSW 3.5 mph - N/A   Overcast
4:35 PM 67.1 °F 51.4 °F 57% 29.90 in 10.0 mi SSW 4.6 mph - N/A   Overcast
4:55 PM 67.1 °F 51.1 °F 56% 29.90 in 10.0 mi SW 9.2 mph 16.1 mph N/A   Overcast
5:15 PM 65.8 °F 51.8 °F 60% 29.91 in 10.0 mi SSW 9.2 mph 20.7 mph N/A   Overcast
5:35 PM 64.9 °F 52.9 °F 65% 29.90 in 10.0 mi South 6.9 mph - N/A   Overcast
5:55 PM 64.0 °F 53.8 °F 69% 29.91 in 10.0 mi SW 10.4 mph 16.1 mph N/A   Overcast
6:15 PM 63.3 °F 54.9 °F 74% 29.92 in 10.0 mi SSW 8.1 mph - N/A   Overcast
6:35 PM 62.6 °F 55.8 °F 78% 29.92 in 10.0 mi SSW 9.2 mph - N/A   Overcast
6:55 PM 61.9 °F 56.3 °F 82% 29.92 in 10.0 mi SSW 10.4 mph - N/A   Overcast
7:15 PM 61.7 °F 55.9 °F 81% 29.92 in 10.0 mi SW 5.8 mph - N/A   Overcast
7:35 PM 61.5 °F 56.1 °F 82% 29.92 in 10.0 mi SSW 6.9 mph - N/A   Overcast
7:54 PM 61.5 °F 56.3 °F 83% 29.93 in 10.0 mi SSW 4.6 mph - N/A   Overcast
8:15 PM 61.7 °F 56.5 °F 83% 29.92 in 10.0 mi South 5.8 mph - N/A   Overcast
8:55 PM 61.7 °F 56.8 °F 84% 29.92 in 10.0 mi SSW 5.8 mph - N/A   Overcast
9:15 PM 61.3 °F 57.0 °F 86% 29.92 in 10.0 mi SSW 4.6 mph - N/A   Overcast
9:35 PM 61.2 °F 57.2 °F 87% 29.92 in 7.0 mi SSW 4.6 mph - N/A   Overcast
9:55 PM 61.2 °F 57.2 °F 87% 29.92 in 7.0 mi SSW 5.8 mph - N/A   Overcast
10:15 PM 61.7 °F 57.6 °F 86% 29.93 in 7.0 mi SSW 5.8 mph - N/A   Overcast
10:35 PM 62.1 °F 57.7 °F 86% 29.93 in 7.0 mi SW 5.8 mph - N/A   Overcast
10:55 PM 61.2 °F 57.4 °F 87% 29.93 in 7.0 mi SSW 5.8 mph - N/A   Mostly Cloudy
11:15 PM 60.8 °F 57.4 °F 88% 29.93 in 5.0 mi SSW 3.5 mph - N/A   Scattered Clouds
11:55 PM 60.8 °F 57.6 °F 89% 29.93 in 5.0 mi South 5.8 mph - N/A   Overcast